www.pogodaiklimat.ru

Архив погоды в Карабутаке (Актюбинская область, Казахстан)

Время
(UTC), дата
00 8.07
03 8.07
06 8.07
09 8.07
12 8.07
15 8.07
18 8.07
21 8.07
00 9.07
03 9.07
06 9.07
09 9.07
12 9.07
15 9.07
18 9.07
21 9.07
00 10.07
03 10.07
06 10.07
09 10.07
12 10.07
15 10.07
18 10.07
21 10.07
00 11.07
03 11.07
06 11.07
09 11.07
12 11.07
15 11.07
18 11.07
21 11.07
00 12.07
03 12.07
06 12.07
09 12.07
12 12.07
15 12.07
18 12.07
21 12.07
00 13.07
03 13.07
06 13.07
09 13.07
12 13.07
15 13.07
18 13.07
21 13.07
00 14.07
03 14.07
06 14.07
09 14.07
12 14.07
15 14.07
18 14.07
Ветер
(напр.,м/с)
Видим. Явления Облачность Т
(С)
Тd
(С)
f
(%)
Тe
(С)
Тes
(С)
Комфортность P
(гПа)
Po
(гПа)
Тmin
(С)
Tmax
(С)
R
(мм)
R24
(мм)
S
(см)
СЗ 2 10 км 3/0
[Ac lent]
+18.2 +15.3 83 +19 +19 1011.7 985.0
С 3 50 км ясно +22.1 +15.8 67 +26 +30 душно 1011.8 985.4
С 6 50 км 8/8 1000 м
[Cu med, cong]
+26.0 +16.3 55 +29 +31 душно 1011.3 985.3 +17.9
СЗ 8 50 км 8/8 600 м
[Cb calv]
+28.3 +16.1 48 +32 +32 душно 1010.6 984.8
СЗ 5 50 км 9/6 600 м
[Cb calv Ci ing]
+26.5 +16.8 55 +30 +32 душно 1010.8 984.8
С 4 50 км 9/3 600 м
[Cb calv Ci ing]
+28.7 +15.9 46 +32 +32 душно 1010.2 984.4 +31.6
СВ 1 н/о 4/0
[Ci ing]
+22.2 +16.1 68 +26 +26 душно 1011.4 985.0 +31.6
СВ 1 н/о ясно +18.9 +15.0 78 +21 +21 комфорт 1011.6 984.9
ЮВ 1 10 км 3/0
[Ac lent]
+18.8 +14.2 75 +21 +21 комфорт 1012.0 985.3
ЮВ 3 50 км 3/3 1000 м
[Cu hum]
+22.7 +16.5 68 +27 +30 душно 1011.9 985.6
Ю 4 50 км 3/3 1000 м
[Cu hum]
+28.3 +14.9 44 +31 +38 душно 1011.2 985.4 +18.5
ЮВ 3 50 км 6/6 1000 м
[Cu med, cong]
+31.0 +13.5 34 +32 +38 жарко 1010.7 985.1
ЮВ 5 50 км 8/3 1000 м
[Cu med, cong Ci ing]
+31.7 +13.4 33 +33 +35 жарко 1009.1 983.6
В 3-15 {22} 50 км в посл. час гроза {ливн. дождь} 8/8 600 м
[Cb cap]
+20.4 +18.5 89 +24 +25 комфорт 1012.1 985.6 +33.7
ЮВ 3 {15} н/о {гроза, ливн. дождь} 6/3 600 м
[Cb calv Ac lent]
+22.3 +18.8 81 +28 +28 душно 1011.1 984.8 +33.7 26
штиль 0 н/о 3/3 1000 м
[Cu hum]
+21.1 +16.9 77 +25 +25 комфорт 1011.4 985.0
В 5 10 км в посл. час гроза {ливн. дождь} 9/9 600 м
[Cb cap]
+21.5 +17.7 79 +26 +26 душно 1012.0 985.6
В 2 50 км {гроза, ливн. дождь} 8/8 600 м
[Cb cap]
+20.9 +17.9 83 +26 +27 душно 1011.9 985.4
Ю 3 50 км {гроза, ливн. дождь} 9/8 600 м
[Cb cap Cc]
+23.3 +16.1 64 +28 +30 душно 1013.0 986.7 +20.3 1
В 3 50 км 9/8 600 м
[Cb cap Ac cast]
+25.8 +16.3 56 +29 +31 душно 1012.6 986.5
ЮВ 5 50 км 6/3 600 м
[Cb calv Ac cuf]
+29.1 +14.1 40 +31 +33 жарко 1010.7 984.9
ЮВ 5 50 км 8/5 600 м
[Cb calv Ac cast Cc]
+29.3 +14.4 40 +31 +31 жарко 1009.5 983.8 +30.8
В 3 н/о в посл. час гроза {ливн. дождь} 5/4 600 м
[Cb cap Ac cast]
+22.9 +16.4 67 +28 +28 душно 1009.2 983.0 +30.8
В 3 н/о 3/0
[Ac trans]
+22.2 +15.4 65 +26 +26 душно 1008.7 982.4
СВ 4 10 км в посл. час ливневой дождь 6/4 600 м
[Cb cap Ac cast]
+19.4 +16.4 83 +21 +21 комфорт 1007.3 980.8
В 7 20 км гроза без осадков 9/9 600 м
[Cb cap]
+23.5 +13.9 55 +26 +26 жарко 1006.3 980.2
СВ 5 10 км гроза, ливневой дождь 10/10 300 м
[Cb cap]
+21.6 +15.8 70 +25 +25 комфорт 1005.8 979.5 +19.1 2
В 10 {15} 20 км {гроза, ливн. дождь} 9/9 600 м
[Cb cap]
+23.3 +15.8 63 +28 +28 душно 1005.7 979.6
В 8 50 км {гроза, ливн. дождь} 9/4 600 м
[Cb calv Ac As Ci ing]
+24.8 +16.0 58 +28 +29 жарко 1004.5 978.5
В 4 50 км 8/3 600 м
[Cb calv Cc]
+24.7 +15.6 57 +28 +28 душно 1002.8 976.9 +27.4
С 6 н/о гроза без осадков {ливн. дождь} 9/9 600 м
[Cb cap]
+20.7 +15.0 70 +23 +23 комфорт 1003.2 976.9 +27.4 3
Ю 2 н/о слаб. ливневой дождь {гроза} 10/10 600 м
[Cb cap]
+18.7 +16.2 85 +20 +20 1002.7 976.3
СЗ 8 10 км слаб. ливневой дождь {гроза} 9/9 600 м
[Cb cap]
+17.3 +15.5 89 +16 +16 998.5 972.0
СЗ 5 20 км {ливн. дождь} 9/9 600 м
[Cb cap]
+17.8 +15.3 85 +17 +18 998.1 971.7
С 5 50 км {ливн. дождь} 9/8 600 м
[Cb calv Ac cast Cc]
+23.5 +15.8 62 +27 +28 душно 995.8 970.0 +16.9 6
С 3 10 км гроза, ливневой дождь 9/8 600 м
[Cb cap Cc]
+23.5 +17.5 69 +27 +30 душно 994.0 968.2
З 4 10 км гроза, ливневой дождь 10/10 600 м
[Cb cap]
+18.5 +16.7 89 +19 +19 992.5 966.3
СЗ 2 10 км в посл. час ливневой дождь {гроза} 9/9 600 м
[Cb cap]
+17.1 +15.4 90 +17 +17 992.2 965.9 +26.1
СЗ 1 н/о {гроза, ливн. дождь} 9/4 600 м
[Cb calv Ac trans]
+16.3 +14.9 91 +17 +17 991.1 964.7 +26.1 5
Ю 4 н/о 9/6 600 м
[Cb calv Ac trans]
+16.1 +14.6 91 +15 +15 990.4 964.0
ЮВ 4 10 км 9/9 600 м
[Cb calv]
+15.7 +14.0 90 +15 +15 991.7 965.3
В 4 50 км 4/3 600 м
[Cb calv Ci ing]
+16.4 +14.2 87 +16 +18 993.2 966.8
В 5 50 км 4/4 1000 м
[Cu med, cong]
+20.5 +13.1 62 +23 +27 комфорт 994.1 968.0 +15.5
ЮВ 6 50 км 8/4 1000 м
[Cu med, cong Ac trans Ci ing]
+23.0 +11.4 48 +25 +28 комфорт 994.6 968.7
В 7 20 км 9/8 600 м
[Cb calv Ci ing]
+24.4 +9.4 39 +25 +26 комфорт 994.4 968.6
СЗ 4 20 км 9/3 600 м
[Cb calv Ac cast Ci fib]
+21.8 +12.0 54 +24 +24 комфорт 995.7 969.7 +26.7
В 2 н/о 6/6 600 м
[Cb calv]
+18.9 +14.8 77 +21 +21 комфорт 996.8 970.5 +26.7
С 4 н/о 8/8 600 м
[Cb calv]
+16.5 +13.3 81 +16 +16 997.5 971.0
С 3 10 км 6/3 600 м
[Cb calv Cc]
+15.0 +12.5 85 +14 +14 998.4 971.7
С 4 50 км 8/0
[Ac trans Cc]
+18.5 +16.0 85 +19 +21 999.3 972.9
СВ 5 50 км 4/1 1000 м
[Cu hum Ci ing]
+24.5 +15.5 57 +27 +34 жарко 999.7 973.8 +14.7
СВ 7 50 км 8/6 1000 м
[Cu med, cong Cc]
+27.2 +12.2 39 +28 +30 жарко 999.7 974.0
СВ 5 {17} 20 км гроза без осадков {ливн. дождь} 9/9 600 м
[Cb cap]
+23.1 +16.3 66 +28 +28 душно 1000.1 974.1
СВ 2 20 км в посл. час ливневой дождь {гроза} 9/9 600 м
[Cb cap]
+19.3 +15.8 80 +22 +22 комфорт 1000.7 974.4 +29.4
С 3 н/о {гроза, ливн. дождь} 9/0
[Ac As Cc]
+17.9 +14.7 82 +18 +18 1002.0 975.5 +29.4 2
Местоположение метеостанции Карабутак (Актюбинская область, Казахстан): широта 49.95 долгота 60.13 высота над уровнем моря 229 м.
В архиве по умолчанию представлена погода в Карабутаке за последнюю неделю. Архивные данные за месяц целиком и за предыдущие месяцы, начиная с января 2011 года, Вы можете получить, выбрав интересующий диапазон дат из раскрывающегося списка и нажав кнопку "Найти!".
*Определитесь, кто Вы:
Внимание! Время в таблицах - всемирное. Для получения местного времени необходимо прибавить поправку, которая равна 4 ч.
Некоторые строки с данными для отдельных станций могут быть выделены курсивом. Это означает, что фактические данные отсутствуют по различным причинам, а приведенные значения являются расчетными модельными данными для данного пункта наблюдений.
Смотрите также архив погоды в соседних городах и на ближайших метеорологических станциях:
Партнеры нашего сайта:      
Пояснения к столбцам:
  • Ветер - указаны скорость ветра в м/с - средняя за 10 мин, порывы в срок и между сроками (в фигурных скобках) и направление, откуда дует ветер: С - северный,
  • СВ - северо-восточный, В - восточный, ЮВ - юго-восточный, Ю - южный, ЮЗ - юго-западный, З - западный, СЗ - северо-западный.
  • Видимость - горизонтальная дальность видимости в метрах или километрах. При видимости от 1 до 10 км при отсутствии осадков обычно наблюдается дымка, при ухудшении видимости до 1 км и менее - туман. В сухую погоду видимость может ухудшаться дымом, пылью или мглою.
  • Явления - указаны атмосферные явления, наблюдавшиеся в срок или в последний час перед сроком; фигурными скобками обозначены явления, наблюдавшиеся между сроками (за 1-3 часа до срока); квадратными скобками обозначены град или гололедные отложения с указанием их диаметра в мм.
  • Облачность - указаны через наклонную черту общая и нижняя облачность в баллах и высота нижней границы облаков в метрах; квадратными скобками обозначены формы облаков: Ci - перистые, Cs - перисто-слоистые, Cc - перисто-кучевые, Ac - высококучевые, As - высокослоистые, Sc - слоисто-кучевые, Ns - слоисто-дождевые, Cu - кучевые, Cb - кучево-дождевые. Подробнее классификацию облаков см. в Атласе облаков (PDF).
  • T - Температура воздуха - температура, измеренная на высоте 2 м над землей.
  • Td - Температура точки росы - температура, при понижении до которой содержащийся в воздухе водяной пар достигнет насыщения.
  • f - Относительная влажность воздуха - влажноcть воздуха, измеренная на высоте 2 м над землей.
  • Te - Эффективная температура - температура, которую ощущает одетый по сезону человек в тени. Характеристика душности погоды. При расчете учитывается влияние влажности воздуха и скорости ветра на теплоощущения человека.
  • Tes - Эффективная температура на солнце - температура, которую ощущает человек, с поправкой на солнечный нагрев. Характеристика знойности погоды. Зависит от высоты солнца над горизонтом, облачности и скорости ветра. Ночью, в пасмурную погоду, а также при ветре 12 м/с и более поправка равна нулю.
  • P - Атмосферное давление - приведенное к уровню моря атмосферное давление.
  • Po - Атмосферное давление - измеренное на уровне метеостанции атмосферное давление.
  • Tmin - Минимальная температура - минимум температуры воздуха на высоте 2 м над землей.
  • Tmax - Максимальная температура - максимум температуры воздуха на высоте 2 м над землей.
  • R - Количество осадков - Количество выпавших осадков за период времени, мм. При наведении курсора мыши на число - период времени, за который выпало указанное количество осадков.
  • R24 - Количество осадков - Количество выпавших осадков за 24 часа, мм.
  • S - Снежный покров - Высота снежного покрова, см. При наведении курсора мыши на число - состояние снежного покрова и степень покрытия местности в баллах.